St. Charles, IL

11:38 AM CDT on April 26, 2018 (GMT -0500)
Saint Charles County Smartt

Weather History for KSET - May, 2013

Change the Weather History Date:

Thursday, May 30, 2013

  Actual Average (KSTL) Record (KSTL)
Temperature  
Mean Temperature 74 °F -  
Max Temperature 82 °F 79 °F 97 °F (1934)
Min Temperature 66 °F 60 °F 42 °F (1889)
Cooling Degree Days 9    
Growing Degree Days 24 (Base 50)    
Moisture  
Dew Point 67 °F    
Average Humidity 76    
Maximum Humidity 94    
Minimum Humidity 58    
Precipitation  
Precipitation 0.45 in - - ()
Sea Level Pressure  
Sea Level Pressure 29.84 in    
Wind  
Wind Speed 14 mph (South)    
Max Wind Speed 29 mph    
Max Gust Speed 36 mph    
Visibility 9 miles    
Events Rain , Thunderstorm    
Averages and records for this station are not official NWS values.
T = Trace of Precipitation, MM = Missing Value Source: NWS Daily Summary

Daily Weather History Graph

Daily Weather History Graph

Search for Another Location

Airport or City:

Astronomy

May. 30, 2013 Rise Set
Actual Time 5:38 AM CDT 8:20 PM CDT
Civil Twilight 5:07 AM CDT 8:51 PM CDT
Nautical Twilight 4:28 AM CDT 9:30 PM CDT
Astronomical Twilight 3:44 AM CDT 10:14 PM CDT
Moon 12:22 AM CDT (5/30) 11:45 AM CDT (5/30)
Length of Visible Light 15h 43m
Length of Day
14h 41m
Waning Gibbous, 62% of the Moon is Illuminated
May 30
Waning Gibbous
May 31
Last Quarter
Jun 8
New
Jun 16
First Quarter
Jun 23
Full

Hourly Weather History & Observations

Time (CDT) Temp. Heat Index Dew Point Humidity Pressure Visibility Wind Dir Wind Speed Gust Speed Precip Events Conditions
12:54 AM 71.1 °F - 63.0 °F 75% 29.87 in 10.0 mi ESE 8.1 mph - N/A   Partly Cloudy
1:54 AM 71.1 °F - 64.0 °F 78% 29.86 in 10.0 mi ESE 8.1 mph - N/A   Mostly Cloudy
2:54 AM 71.1 °F - 64.9 °F 81% 29.85 in 10.0 mi ESE 9.2 mph - N/A   Mostly Cloudy
3:54 AM 71.1 °F - 66.0 °F 84% 29.85 in 10.0 mi ESE 10.4 mph - N/A   Mostly Cloudy
4:54 AM 73.9 °F - 66.0 °F 76% 29.85 in 10.0 mi SSE 12.7 mph - N/A   Clear
5:54 AM 73.9 °F - 66.0 °F 76% 29.85 in 10.0 mi SSE 13.8 mph - N/A   Clear
6:54 AM 75.0 °F - 66.9 °F 76% 29.85 in 10.0 mi SSE 13.8 mph - N/A   Partly Cloudy
7:54 AM 77.0 °F - 68.0 °F 74% 29.85 in 10.0 mi SSE 17.3 mph - N/A   Clear
8:54 AM 78.1 °F - 69.1 °F 74% 29.87 in 10.0 mi South 16.1 mph 25.3 mph N/A   Scattered Clouds
9:31 AM 78.8 °F - 69.8 °F 74% 29.88 in 10.0 mi South 18.4 mph 31.1 mph 0.01 in   Mostly Cloudy
9:43 AM 78.8 °F - 69.8 °F 74% 29.88 in 10.0 mi South 18.4 mph 25.3 mph 0.01 in   Scattered Clouds
9:54 AM 80.1 °F 82.9 °F 69.1 °F 69% 29.86 in 10.0 mi South 16.1 mph 26.5 mph 0.01 in   Mostly Cloudy
10:54 AM 81.0 °F 84.1 °F 69.1 °F 67% 29.86 in 10.0 mi South 28.8 mph 34.5 mph N/A   Scattered Clouds
11:54 AM 82.0 °F 85.5 °F 69.1 °F 65% 29.85 in 10.0 mi South 23.0 mph 34.5 mph N/A   Scattered Clouds
12:54 PM 82.0 °F 85.9 °F 70.0 °F 67% 29.85 in 10.0 mi SSE 20.7 mph 25.3 mph N/A   Scattered Clouds
1:35 PM 82.4 °F 86.3 °F 69.8 °F 66% 29.84 in 10.0 mi SSE 21.9 mph 31.1 mph N/A Thunderstorm Thunderstorm
1:54 PM 81.0 °F 84.1 °F 69.1 °F 67% 29.83 in 10.0 mi South 23.0 mph 33.4 mph N/A Thunderstorm Partly Cloudy
2:40 PM 80.6 °F 83.9 °F 69.8 °F 70% 29.83 in 10.0 mi South 19.6 mph 26.5 mph N/A   Partly Cloudy
2:54 PM 82.0 °F 85.5 °F 69.1 °F 65% 29.81 in 10.0 mi South 18.4 mph 27.6 mph N/A   Clear
3:54 PM 82.0 °F 85.5 °F 69.1 °F 65% 29.79 in 10.0 mi SSE 24.2 mph - N/A   Partly Cloudy
4:54 PM 79.0 °F - 70.0 °F 74% 29.77 in 10.0 mi South 21.9 mph 29.9 mph 0.00 in Rain Light Rain
5:05 PM 80.6 °F 83.9 °F 69.8 °F 70% 29.79 in 10.0 mi South 16.1 mph 26.5 mph 0.00 in Thunderstorm Mostly Cloudy
5:23 PM 82.4 °F 84.6 °F 66.2 °F 58% 29.79 in 10.0 mi South 19.6 mph 32.2 mph 0.00 in   Scattered Clouds
5:54 PM 81.0 °F 83.0 °F 66.0 °F 60% 29.78 in 10.0 mi South 27.6 mph 35.7 mph 0.00 in   Scattered Clouds
6:54 PM 80.1 °F 81.9 °F 64.9 °F 60% 29.78 in 10.0 mi South 26.5 mph 33.4 mph N/A Thunderstorm Mostly Cloudy
7:29 PM 73.4 °F - 64.4 °F 73% 29.83 in 10.0 mi South 17.3 mph 26.5 mph 0.04 in Rain Light Rain
7:54 PM 72.0 °F - 63.0 °F 73% 29.85 in 10.0 mi SSW 16.1 mph 24.2 mph 0.04 in   Mostly Cloudy
8:54 PM 71.1 °F - 63.0 °F 75% 29.83 in 10.0 mi South 6.9 mph - N/A   Mostly Cloudy
9:19 PM 69.8 °F - 64.4 °F 83% 29.85 in 2.5 mi WSW 6.9 mph - 0.08 in Rain Light Rain
9:27 PM 69.8 °F - 64.4 °F 83% 29.85 in 10.0 mi SW 5.8 mph - 0.08 in Rain Light Rain
9:54 PM 69.1 °F - 66.0 °F 90% 29.83 in 10.0 mi Calm Calm - 0.08 in   Overcast
10:16 PM 69.8 °F - 66.2 °F 88% 29.84 in 5.0 mi East 5.8 mph - 0.03 in Rain Light Rain
10:23 PM 69.8 °F - 66.2 °F 88% 29.88 in 2.5 mi West 17.3 mph 25.3 mph 0.12 in Rain Heavy Rain
10:29 PM 66.2 °F - 64.4 °F 94% 29.88 in 1.5 mi WSW 15.0 mph 27.6 mph 0.21 in Rain Heavy Rain
10:34 PM 66.2 °F - 64.4 °F 94% 29.89 in 2.0 mi West 13.8 mph 21.9 mph 0.22 in Rain Rain
10:37 PM 68.0 °F - 64.4 °F 88% 29.88 in 4.0 mi West 11.5 mph 21.9 mph 0.23 in Rain Rain
10:54 PM 68.0 °F - 64.9 °F 90% 29.87 in 8.0 mi SSW 6.9 mph - 0.26 in Rain Light Rain
11:54 PM 66.9 °F - 64.0 °F 90% 29.84 in 10.0 mi SSE 13.8 mph - 0.06 in Rain Light Rain